カタログに戻る

STARLINK-36397

運用中通信SSO
NORAD 67538·PAYLOAD·🇺🇸 United States

打ち上げ Jan 22, 2026 から Vandenberg Space Force Base

Loading…

次のパス (今後24時間)

TLE

最新Source: CelesTrak SupGP

元期: Sep 15, 2026, 02:52 UTC

1 67538C 26014G   26258.11993056  .00076510  00000+0  23742-2 0  2585
2 67538  97.2849 143.5816 0001763  93.9578 325.9547 15.33411837    18

AllMySatでSTARLINK-36397をリアルタイム追跡

Download on the App Store